DW3735 Weather Reports


Display with metric or nautical units.
time (UTC)temp
F
wind
direction
speed
MPH
gust
MPH
rain 1hr
in
rain 24hr
in
rain mn
in
humidity
%
barometer
mb
20260510232037 51 0.0 0.0 0.00 0.27 0.06 45 1014.0
20260510231017 51 0.0 3.0 0.00 0.27 0.06 46 1013.8
20260510230018 52 315 1.0 5.0 0.00 0.27 0.06 44 1013.7
20260510225017 52 0.0 5.0 0.00 0.27 0.06 39 1013.4
20260510224017 52 0.0 3.0 0.00 0.27 0.06 41 1013.3
20260510223017 52 315 1.0 5.0 0.00 0.27 0.06 42 1013.3
20260510222017 51 338 1.0 5.0 0.00 0.27 0.06 43 1013.1
20260510221018 52 0.0 3.0 0.00 0.27 0.06 44 1013.1
20260510220037 52 293 2.0 6.0 0.00 0.27 0.06 43 1013.1
20260510215017 53 293 3.0 9.0 0.00 0.27 0.06 41 1012.9
20260510214017 52 0.0 3.0 0.00 0.27 0.06 45 1012.7
20260510213018 51 315 3.0 5.0 0.00 0.27 0.06 44 1012.6
20260510212038 51 270 1.0 4.0 0.00 0.27 0.06 48 1012.6
20260510211017 51 0.0 2.0 0.00 0.27 0.06 53 1012.3
20260510210017 51 0.0 0.0 0.01 0.27 0.06 57 1012.1
20260510205017 50 0.0 0.0 0.01 0.27 0.06 57 1012.0
20260510204038 50 0.0 0.0 0.01 0.27 0.06 58 1011.9
20260510203017 49 315 1.0 8.0 0.01 0.27 0.06 59 1011.9
20260510202018 49 0.0 2.0 0.01 0.27 0.06 61 1011.8
20260510201038 49 0.0 1.0 0.01 0.27 0.06 61 1011.8
20260510200018 50 0.0 3.0 0.00 0.26 0.05 60 1011.6
20260510195018 50 0.0 2.0 0.00 0.26 0.05 58 1011.5
20260510194016 50 0.0 0.0 0.00 0.26 0.05 61 1011.4
20260510193037 50 0.0 1.0 0.00 0.26 0.05 59 1011.4
20260510192058 50 315 2.0 8.0 0.00 0.26 0.05 60 1011.6
20260510191018 51 0.0 1.0 0.01 0.26 0.05 62 1011.2
20260510190017 50 0.0 1.0 0.01 0.26 0.05 65 1011.1
20260510185017 49 0.0 0.0 0.01 0.26 0.05 66 1011.0
20260510184017 48 0.0 2.0 0.01 0.26 0.05 67 1011.0
20260510183017 47 0.0 1.0 0.01 0.26 0.05 68 1011.0
20260510182017 48 0.0 3.0 0.01 0.26 0.05 69 1011.0
20260510181037 48 0.0 0.0 0.01 0.25 0.04 71 1010.9
20260510180018 47 158 1.0 5.0 0.01 0.25 0.04 71 1010.7
20260510175018 47 0.0 0.0 0.01 0.25 0.04 74 1010.8
20260510174017 46 0.0 0.0 0.01 0.25 0.04 72 1010.7
20260510173017 46 338 1.0 8.0 0.01 0.25 0.04 68 1010.8
20260510172017 49 293 3.0 9.0 0.01 0.25 0.04 65 1010.8
20260510171038 51 270 1.0 4.0 0.00 0.24 0.03 65 1010.1
20260510170017 51 270 1.0 4.0 0.01 0.24 0.03 66 1010.0
20260510165017 50 293 1.0 3.0 0.01 0.24 0.03 65 1009.9
20260510164017 49 270 1.0 3.0 0.01 0.24 0.03 64 1010.0
20260510163018 48 0.0 2.0 0.01 0.24 0.03 73 1009.9
20260510162017 47 0.0 2.0 0.01 0.24 0.03 75 1009.9
20260510161017 48 270 4.0 9.0 0.01 0.24 0.03 68 1010.0
20260510160017 50 248 1.0 3.0 0.02 0.24 0.02 62 1009.6
20260510155017 49 293 1.0 4.0 0.02 0.24 0.02 65 1009.7
20260510154017 48 338 1.0 5.0 0.02 0.24 0.02 70 1009.6
20260510153017 47 0.0 0.0 0.02 0.24 0.02 77 1009.6
20260510152018 45 0.0 0.0 0.02 0.24 0.02 76 1009.5
20260510151016 46 315 3.0 5.0 0.02 0.24 0.02 71 1009.5
20260510150038 48 293 1.0 3.0 0.01 0.22 0.01 68 1009.2
20260510145017 48 0.0 2.0 0.01 0.22 0.01 67 1009.0
20260510144017 48 0.0 2.0 0.01 0.22 0.01 69 1008.9
20260510143018 47 0.0 3.0 0.01 0.22 0.01 71 1008.9
20260510142018 47 0.0 0.0 0.01 0.22 0.01 75 1008.9
20260510141037 47 338 1.0 5.0 0.01 0.22 0.01 73 1008.8
20260510140038 47 0.0 0.0 0.00 0.21 0.00 69 1008.7
20260510135018 47 338 2.0 5.0 0.00 0.21 0.00 68 1008.5
20260510134038 47 293 2.0 5.0 0.00 0.21 0.00 68 1008.3
20260510133017 46 293 2.0 4.0 0.00 0.21 0.00 69 1008.2
20260510132018 46 293 1.0 3.0 0.00 0.21 0.00 69 1008.1
20260510131017 46 270 2.0 4.0 0.00 0.21 0.00 68 1007.8
20260510130017 46 293 2.0 6.0 0.00 0.21 0.00 69 1007.7
20260510125018 47 270 2.0 6.0 0.00 0.21 0.00 69 1007.5
20260510124017 47 0.0 0.0 0.00 0.21 0.00 71 1007.4
20260510123038 46 0.0 2.0 0.00 0.21 0.00 72 1007.3
20260510122017 46 0.0 3.0 0.00 0.21 0.00 72 1007.2
20260510121038 45 293 1.0 4.0 0.00 0.21 0.00 72 1007.1
20260510120017 45 0.0 0.0 0.00 0.21 0.00 74 1006.8
20260510115017 45 0.0 0.0 0.00 0.21 0.00 74 1006.7
20260510114037 45 0.0 0.0 0.00 0.21 0.00 74 1006.5
20260510113038 45 0.0 0.0 0.00 0.21 0.00 74 1006.4
20260510112017 45 0.0 2.0 0.00 0.21 0.00 74 1006.2
20260510111018 45 0.0 2.0 0.00 0.21 0.00 74 1005.9
20260510110038 45 0.0 2.0 0.00 0.21 0.00 74 1005.7
20260510105018 45 270 1.0 4.0 0.00 0.21 0.00 74 1005.6
20260510104017 44 225 1.0 3.0 0.00 0.21 0.00 74 1005.4
20260510103018 44 0.0 0.0 0.00 0.21 0.00 76 1005.3
20260510102017 44 0.0 0.0 0.00 0.21 0.00 75 1005.1
20260510101037 44 0.0 0.0 0.00 0.21 0.00 75 1004.9
20260510100017 44 0.0 0.0 0.00 0.21 0.00 75 1004.6
20260510095017 45 0.0 0.0 0.00 0.21 0.00 74 1004.5
20260510094017 45 0.0 0.0 0.00 0.21 0.00 74 1004.4
20260510093017 45 0.0 0.0 0.00 0.21 0.00 73 1004.3
20260510092018 45 0.0 0.0 0.00 0.21 0.00 74 1004.3
20260510091017 45 0.0 0.0 0.00 0.21 0.00 74 1004.2
20260510090017 45 0.0 0.0 0.00 0.21 0.00 75 1004.2
20260510085038 45 0.0 0.0 0.00 0.21 0.00 74 1004.0
20260510084018 46 0.0 0.0 0.00 0.21 0.00 74 1003.9
20260510083017 46 0.0 0.0 0.00 0.21 0.00 74 1003.8
20260510082035 46 0.0 0.0 0.00 0.21 0.00 75 1003.6
20260510081037 46 0.0 0.0 0.00 0.21 0.00 75 1003.5
20260510080017 46 0.0 0.0 0.00 0.21 0.00 75 1003.3
20260510075037 46 0.0 0.0 0.00 0.21 0.00 75 1003.1
20260510074017 47 0.0 0.0 0.00 0.21 0.00 75 1002.9
20260510073017 47 0.0 0.0 0.00 0.21 0.00 76 1002.8
20260510072016 47 0.0 0.0 0.00 0.21 0.00 78 1002.8
20260510071015 47 0.0 3.0 0.00 0.21 0.00 77 1002.7
20260510070015 48 0.0 2.0 0.00 0.21 0.00 78 1002.6
20260510065015 48 0.0 0.0 0.00 0.21 0.00 78 1002.4
20260510064036 48 0.0 2.0 0.00 0.21 0.00 78 1002.3
20260510063016 48 225 2.0 3.0 0.00 0.21 0.00 79 1002.1
20260510062015 49 270 1.0 3.0 0.00 0.21 0.00 79 1002.0
20260510061015 49 225 1.0 3.0 0.00 0.21 0.00 79 1001.9
20260510060015 49 225 1.0 4.0 0.00 0.21 0.00 79 1001.7
20260510055016 49 248 1.0 2.0 0.00 0.21 0.00 79 1001.6
20260510054015 49 225 1.0 3.0 0.00 0.21 0.00 79 1001.5
20260510053015 50 225 2.0 4.0 0.00 0.21 0.00 80 1001.4
20260510052015 50 225 2.0 4.0 0.00 0.21 0.00 81 1001.5
20260510051015 50 203 2.0 5.0 0.00 0.21 0.00 81 1001.3
20260510050015 49 158 2.0 5.0 0.00 0.21 0.00 83 1001.3
20260510045015 49 0.0 0.0 0.00 0.21 0.00 84 1001.2
20260510044035 49 0.0 0.0 0.00 0.21 0.00 86 1001.1
20260510043015 49 0.0 2.0 0.00 0.21 0.00 87 1001.1
20260510042016 49 0.0 5.0 0.00 0.21 0.00 87 1001.2
20260510041016 48 0.0 0.0 0.01 0.21 0.00 86 1001.1
20260510040015 48 0.0 0.0 0.03 0.21 0.00 85 1000.9
20260510035015 48 0.0 1.0 0.06 0.21 0.21 84 1000.9
20260510034016 49 158 2.0 4.0 0.16 0.21 0.21 83 1001.0
20260510033016 49 158 2.0 5.0 0.19 0.21 0.21 83 1000.9
20260510032016 49 158 2.0 5.0 0.21 0.21 0.21 84 1001.0
20260510031016 49 0.0 0.0 0.20 0.20 0.20 82 1001.3
20260510030016 49 225 1.0 4.0 0.18 0.18 0.18 80 1001.7
20260510025016 50 270 1.0 7.0 0.16 0.16 0.16 76 1001.5
20260510024016 52 248 5.0 10.0 0.06 0.06 0.06 72 1001.5
20260510023016 54 158 2.0 5.0 0.02 0.02 0.02 65 999.5
20260510022016 56 158 4.0 8.0 0.00 0.00 0.00 58 999.4
20260510021016 56 135 7.0 11.0 0.00 0.00 0.00 56 999.5
20260510020016 56 135 4.0 8.0 0.00 0.00 0.00 55 999.8
20260510015015 57 158 4.0 7.0 0.00 0.00 0.00 53 1000.2
20260510014016 57 135 5.0 10.0 0.00 0.00 0.00 52 1000.3
20260510013016 57 180 5.0 12.0 0.00 0.00 0.00 52 1000.7
20260510012015 57 158 7.0 12.0 0.00 0.00 0.00 51 1000.8
20260510011016 58 180 4.0 8.0 0.00 0.00 0.00 49 1001.0
20260510010016 58 180 5.0 15.0 0.00 0.00 0.00 47 1001.1
20260510005016 59 180 4.0 10.0 0.00 0.00 0.00 44 1001.3
20260510004036 60 203 4.0 9.0 0.00 0.00 0.00 42 1001.1
20260510003016 60 203 4.0 8.0 0.00 0.00 0.00 40 1000.8
20260510002016 60 203 3.0 6.0 0.00 0.00 0.00 40 1001.1
20260510001016 60 180 5.0 10.0 0.00 0.00 0.00 40 1001.1
20260510000016 60 180 6.0 14.0 0.00 0.00 0.00 39 1001.0
20260509235016 61 180 7.0 16.0 0.00 0.00 0.00 38 1001.2
20260509234016 61 158 6.0 13.0 0.00 0.00 0.00 40 1001.1
20260509233016 61 180 6.0 12.0 0.00 0.00 0.00 40 1001.0